SB KEPS @ AMSAT $ORB14100.O Orbital Elements 14100.OSCAR
HR AMSAT ORBITAL ELEMENTS FOR OSCAR SATELLITES FROM WA5QGD FORT WORTH,TX April 10, 2014 BID: ORB14100.O TO ALL RADIO AMATEURS BT
Satellite: AO-07 Catalog number: 07530 Epoch time: 14100.85955032 Element set: 936 Inclination: 101.4666 deg RA of node: 084.9224 deg Eccentricity: 0.0012378 Arg of perigee: 067.5592 deg Mean anomaly: 350.5090 deg Mean motion: 12.53604277 rev/day Decay rate: -4.2e-07 rev/day^2 Epoch rev: 80308 Checksum: 287
Satellite: FO-29 Catalog number: 24278 Epoch time: 14099.68492648 Element set: 346 Inclination: 098.5161 deg RA of node: 122.9882 deg Eccentricity: 0.0351549 Arg of perigee: 115.3583 deg Mean anomaly: 004.8388 deg Mean motion: 13.53019831 rev/day Decay rate: 3.0e-07 rev/day^2 Epoch rev: 87140 Checksum: 331
Satellite: SO-33 Catalog number: 25509 Epoch time: 14100.46934821 Element set: 726 Inclination: 031.4333 deg RA of node: 184.0648 deg Eccentricity: 0.0350046 Arg of perigee: 241.1232 deg Mean anomaly: 218.6057 deg Mean motion: 14.29461061 rev/day Decay rate: 1.109e-05 rev/day^2 Epoch rev: 80745 Checksum: 273
Satellite: RS-22 Catalog number: 27939 Epoch time: 14100.48622225 Element set: 385 Inclination: 097.8059 deg RA of node: 278.0141 deg Eccentricity: 0.0012882 Arg of perigee: 327.3357 deg Mean anomaly: 032.7044 deg Mean motion: 14.65082136 rev/day Decay rate: 1.535e-05 rev/day^2 Epoch rev: 56281 Checksum: 300
Satellite: VO-52 Catalog number: 28650 Epoch time: 14100.11554674 Element set: 705 Inclination: 097.5608 deg RA of node: 108.4957 deg Eccentricity: 0.0025848 Arg of perigee: 026.4300 deg Mean anomaly: 333.8228 deg Mean motion: 14.85197281 rev/day Decay rate: 2.669e-05 rev/day^2 Epoch rev: 48312 Checksum: 315
Satellite: HO-68 Catalog number: 36122 Epoch time: 14100.76839163 Element set: 486 Inclination: 100.2572 deg RA of node: 154.6807 deg Eccentricity: 0.0007546 Arg of perigee: 034.5931 deg Mean anomaly: 325.5670 deg Mean motion: 13.16314145 rev/day Decay rate: -4.3e-07 rev/day^2 Epoch rev: 20756 Checksum: 286
Satellite: AO-73 Catalog number: 39444 Epoch time: 14100.60030369 Element set: 112 Inclination: 097.7763 deg RA of node: 173.5483 deg Eccentricity: 0.0064283 Arg of perigee: 102.6738 deg Mean anomaly: 258.1657 deg Mean motion: 14.78006749 rev/day Decay rate: 4.319e-05 rev/day^2 Epoch rev: 1948 Checksum: 319
/EX SB KEPS @ AMSAT $ORB14100.D Orbital Elements 14100.MICROS
HR AMSAT ORBITAL ELEMENTS FOR THE MICROSATS FROM WA5QGD FORT WORTH,TX April 10, 2014 BID: ORB14100.D TO ALL RADIO AMATEURS BT
Satellite: UO-11 Catalog number: 14781 Epoch time: 14100.83177528 Element set: 460 Inclination: 097.8589 deg RA of node: 162.2510 deg Eccentricity: 0.0009278 Arg of perigee: 048.9183 deg Mean anomaly: 311.2830 deg Mean motion: 14.81479569 rev/day Decay rate: 9.96e-06 rev/day^2 Epoch rev: 61799 Checksum: 340
Satellite: AO-16 Catalog number: 20439 Epoch time: 14099.85407662 Element set: 996 Inclination: 098.5033 deg RA of node: 038.4923 deg Eccentricity: 0.0010765 Arg of perigee: 008.2805 deg Mean anomaly: 061.9537 deg Mean motion: 14.32328002 rev/day Decay rate: 2.42e-06 rev/day^2 Epoch rev: 26470 Checksum: 302
Satellite: LO-19 Catalog number: 20442 Epoch time: 14100.81387499 Element set: 934 Inclination: 098.4741 deg RA of node: 040.2927 deg Eccentricity: 0.0011423 Arg of perigee: 353.9680 deg Mean anomaly: 006.1365 deg Mean motion: 14.32532206 rev/day Decay rate: 2.31e-06 rev/day^2 Epoch rev: 26503 Checksum: 276
Satellite: AO-27 Catalog number: 22825 Epoch time: 14100.79698983 Element set: 639 Inclination: 098.6568 deg RA of node: 047.2590 deg Eccentricity: 0.0009436 Arg of perigee: 131.6732 deg Mean anomaly: 291.5699 deg Mean motion: 14.29695567 rev/day Decay rate: 1.94e-06 rev/day^2 Epoch rev: 7115 Checksum: 358
Satellite: IO-26 Catalog number: 22826 Epoch time: 14100.44430571 Element set: 396 Inclination: 098.6508 deg RA of node: 047.1390 deg Eccentricity: 0.0010056 Arg of perigee: 126.1497 deg Mean anomaly: 234.0617 deg Mean motion: 14.29993042 rev/day Decay rate: 2.02e-06 rev/day^2 Epoch rev: 7123 Checksum: 275
Satellite: GO-32 Catalog number: 25397 Epoch time: 14099.83621378 Element set: 318 Inclination: 098.4617 deg RA of node: 060.4009 deg Eccentricity: 0.0002278 Arg of perigee: 127.7449 deg Mean anomaly: 289.5136 deg Mean motion: 14.23429197 rev/day Decay rate: 8.8e-07 rev/day^2 Epoch rev: 81814 Checksum: 336
Satellite: NO-44 Catalog number: 26931 Epoch time: 14100.48714301 Element set: 574 Inclination: 067.0526 deg RA of node: 213.0287 deg Eccentricity: 0.0005613 Arg of perigee: 279.6968 deg Mean anomaly: 080.3499 deg Mean motion: 14.30087794 rev/day Decay rate: 2.08e-06 rev/day^2 Epoch rev: 65392 Checksum: 311
Satellite: SO-50 Catalog number: 27607 Epoch time: 14100.36148843 Element set: 356 Inclination: 064.5568 deg RA of node: 079.0836 deg Eccentricity: 0.0039550 Arg of perigee: 033.7790 deg Mean anomaly: 326.5819 deg Mean motion: 14.73616265 rev/day Decay rate: 1.773e-05 rev/day^2 Epoch rev: 60748 Checksum: 329
Satellite: CO-55 Catalog number: 27844 Epoch time: 14100.64153104 Element set: 897 Inclination: 098.6990 deg RA of node: 110.3859 deg Eccentricity: 0.0010987 Arg of perigee: 110.0944 deg Mean anomaly: 013.8950 deg Mean motion: 14.21458975 rev/day Decay rate: 4.09e-06 rev/day^2 Epoch rev: 55898 Checksum: 331
Satellite: CO-57 Catalog number: 27848 Epoch time: 14100.84252553 Element set: 839 Inclination: 098.7083 deg RA of node: 110.2580 deg Eccentricity: 0.0010882 Arg of perigee: 115.4729 deg Mean anomaly: 006.9924 deg Mean motion: 14.21152615 rev/day Decay rate: 3.40e-06 rev/day^2 Epoch rev: 55893 Checksum: 306
Satellite: AO-51 Catalog number: 28375 Epoch time: 14099.82866730 Element set: 812 Inclination: 098.2444 deg RA of node: 049.0914 deg Eccentricity: 0.0083013 Arg of perigee: 198.1229 deg Mean anomaly: 161.6997 deg Mean motion: 14.41346342 rev/day Decay rate: 2.48e-06 rev/day^2 Epoch rev: 51405 Checksum: 320
Satellite: CP3 Catalog number: 31129 Epoch time: 14099.79967718 Element set: 717 Inclination: 097.9283 deg RA of node: 081.2781 deg Eccentricity: 0.0097854 Arg of perigee: 223.1619 deg Mean anomaly: 256.4376 deg Mean motion: 14.54531008 rev/day Decay rate: 1.103e-05 rev/day^2 Epoch rev: 37009 Checksum: 329
Satellite: CO-65 Catalog number: 32785 Epoch time: 14100.39902220 Element set: 917 Inclination: 097.7073 deg RA of node: 153.9033 deg Eccentricity: 0.0014822 Arg of perigee: 056.9961 deg Mean anomaly: 065.2497 deg Mean motion: 14.85048306 rev/day Decay rate: 2.099e-05 rev/day^2 Epoch rev: 32196 Checksum: 318
Satellite: PRISM Catalog number: 33493 Epoch time: 14100.75367954 Element set: 811 Inclination: 098.2452 deg RA of node: 273.5789 deg Eccentricity: 0.0016712 Arg of perigee: 305.6437 deg Mean anomaly: 054.3197 deg Mean motion: 14.88832414 rev/day Decay rate: 7.306e-05 rev/day^2 Epoch rev: 28214 Checksum: 313
Satellite: SOHLA-1 Catalog number: 33496 Epoch time: 14100.42374649 Element set: 320 Inclination: 098.1608 deg RA of node: 221.2283 deg Eccentricity: 0.0007712 Arg of perigee: 100.5405 deg Mean anomaly: 299.6289 deg Mean motion: 14.70723847 rev/day Decay rate: 7.58e-06 rev/day^2 Epoch rev: 27955 Checksum: 306
Satellite: TISAT-1 Catalog number: 36799 Epoch time: 14100.79256115 Element set: 73 Inclination: 098.0162 deg RA of node: 192.3036 deg Eccentricity: 0.0014343 Arg of perigee: 175.5303 deg Mean anomaly: 184.5996 deg Mean motion: 14.85237621 rev/day Decay rate: 5.375e-05 rev/day^2 Epoch rev: 20271 Checksum: 298
Satellite: STUDSAT Catalog number: 36801 Epoch time: 14100.45874242 Element set: 800 Inclination: 098.0336 deg RA of node: 198.7420 deg Eccentricity: 0.0010697 Arg of perigee: 156.8946 deg Mean anomaly: 333.6457 deg Mean motion: 14.94975893 rev/day Decay rate: 1.6334e-04 rev/day^2 Epoch rev: 20300 Checksum: 309
Satellite: ALMASAT-1 Catalog number: 38078 Epoch time: 14099.82134528 Element set: 991 Inclination: 069.4695 deg RA of node: 223.5891 deg Eccentricity: 0.0612137 Arg of perigee: 122.7099 deg Mean anomaly: 325.8709 deg Mean motion: 14.44895859 rev/day Decay rate: 5.3890e-04 rev/day^2 Epoch rev: 11174 Checksum: 359
Satellite: XATCOBEO Catalog number: 38082 Epoch time: 14100.53516403 Element set: 112 Inclination: 069.4486 deg RA of node: 143.1902 deg Eccentricity: 0.0313165 Arg of perigee: 077.3717 deg Mean anomaly: 069.0654 deg Mean motion: 15.23300716 rev/day Decay rate: 1.82342e-03 rev/day^2 Epoch rev: 11397 Checksum: 271
Satellite: CUBEBUG-1 Catalog number: 39153 Epoch time: 14100.70812105 Element set: 17 Inclination: 098.0443 deg RA of node: 181.1463 deg Eccentricity: 0.0017261 Arg of perigee: 205.1698 deg Mean anomaly: 154.8669 deg Mean motion: 14.77477805 rev/day Decay rate: 2.841e-05 rev/day^2 Epoch rev: 5159 Checksum: 293
Satellite: ESTCUBE-1 Catalog number: 39161 Epoch time: 14100.76368720 Element set: 994 Inclination: 098.0987 deg RA of node: 182.1561 deg Eccentricity: 0.0008624 Arg of perigee: 246.8826 deg Mean anomaly: 113.1461 deg Mean motion: 14.69812248 rev/day Decay rate: 2.188e-05 rev/day^2 Epoch rev: 4969 Checksum: 327
/EX SB KEPS @ AMSAT $ORB14100.W Orbital Elements 14100.WEATHER
HR AMSAT ORBITAL ELEMENTS FOR WEATHER SATELLITES FROM WA5QGD FORT WORTH,TX April 10, 2014 BID: ORB14100.W TO ALL RADIO AMATEURS BT
Satellite: MET-3/5 Catalog number: 21655 Epoch time: 14110.46165305 Element set: 564 Inclination: 082.5591 deg RA of node: 037.2015 deg Eccentricity: 0.0014461 Arg of perigee: 080.7151 deg Mean anomaly: 279.6728 deg Mean motion: 13.17055791 rev/day Decay rate: -3.0e-08 rev/day^2 Epoch rev: 9039 Checksum: 282
Satellite: MET-2/21 Catalog number: 22782 Epoch time: 14100.83128764 Element set: 24 Inclination: 082.5512 deg RA of node: 226.7356 deg Eccentricity: 0.0023519 Arg of perigee: 095.3323 deg Mean anomaly: 014.7607 deg Mean motion: 13.83733319 rev/day Decay rate: 8.5e-07 rev/day^2 Epoch rev: 4080 Checksum: 278
